Погода в Илезе

Россия / Архангельская область     61°03′20″N   43°54′28″E
темп.,
°C
ветер,
м/с
пор.,
м/с
влажн.,
%
обл.,
%
осадки,
мм/ч
давл.,
гПа
погр.,
м
28 июля, ср
ср2800:00+9ссз287650 0.0 1018140
03:00+7ссз24825 0.0 101871
06:00+11сз24695 0.0 1018161
09:00+17зсз23455 0.0 1016841
12:00+20зюз3433100 0.0 10141524
15:00+22з46275 0.0 10122034
18:00+22з363913 0.0 1009837
21:00+15юз22624 0.0 100816
29 июля, чт
чт2900:00+14зюз266920 0.0 1007103
03:00+13з3108975 0.1 1006220
06:00+15з268677 0.0 1005172
09:00+19зюз2473100 0.1 1004439
12:00+21зюз3564100 0.0 1004837
15:00+17ююз2493100 2.2 1003208
18:00+16ююз2696100 0.1 1002393
21:00+15ю269999 0.6 1000257
30 июля, пт
пт3000:00+15ю2699100 13.1 998315
03:00+15зсз2599100 14.9 998314
06:00+15зсз269885 0.0 999335
09:00+18зсз238294 0.1 1000659
12:00+18зюз347895 0.1 1001708
15:00+22зюз356710 0.6 10001147
18:00+24з126052 0.1 999944
21:00+16ююз229335 1.6 100020
31 июля, сб
сб3100:00+16юз2896100 0.6 999199
03:00+15юз2798100 0.6 999190
06:00+15зюз2797100 0.1 999313
09:00+18зюз257843 0.5 998284
12:00+21зюз475616 1.3 9981458
15:00+19юз3761100 1.5 998384
18:00+14зюз3109166 1.3 999440
21:00+12юз39956 1.3 1000202
1 августа, вс
вс100:00+11зюз289811 0.0 1001178
03:00+11юз279819 0.0 1003152
06:00+13юз269561 0.0 1003207
09:00+19зюз4667100 0.0 10031032
12:00+22зюз4749100 0.0 10031866
15:00+20юз5870100 0.3 1002744
18:00+16зюз51096100 2.6 1003458
21:00+15зюз3899100 6.6 1003430